Time,TemperatureF,DewpointF,PressureIn,WindDirection,WindDirectionDegrees,WindSpeedMPH,WindSpeedGustMPH,Humidity,HourlyPrecipIn,Conditions,Clouds,dailyrainin,SoftwareType,DateUTC
2013-11-26 00:03:00,29.9,15.0,30.28,ESE,116,1.0,4.0,55,0.00,,,0.00,weatherlink.com 1.10,2013-11-26 05:03:00,
2013-11-26 00:17:00,30.0,15.0,30.27,SE,125,5.0,5.0,55,0.00,,,0.00,weatherlink.com 1.10,2013-11-26 05:17:00,
2013-11-26 00:32:00,30.1,16.0,30.27,East,98,2.0,5.0,56,0.00,,,0.00,weatherlink.com 1.10,2013-11-26 05:32:00,
2013-11-26 00:47:00,30.1,16.0,30.26,SE,135,3.0,6.0,57,0.00,,,0.00,weatherlink.com 1.10,2013-11-26 05:47:00,
2013-11-26 01:02:00,30.1,16.0,30.26,SE,135,3.0,4.0,57,0.00,,,0.00,weatherlink.com 1.10,2013-11-26 06:02:00,
2013-11-26 01:17:00,30.0,16.0,30.27,SSE,148,0.0,1.0,57,0.00,,,0.00,weatherlink.com 1.10,2013-11-26 06:17:00,
2013-11-26 01:32:00,30.1,17.0,30.27,SE,131,0.0,2.0,58,0.00,,,0.00,weatherlink.com 1.10,2013-11-26 06:32:00,
2013-11-26 01:48:00,31.5,18.0,30.26,SE,132,1.0,2.0,57,0.00,,,0.00,weatherlink.com 1.10,2013-11-26 06:48:00,
2013-11-26 02:03:00,-999.0,-99.9,30.26,North,-999,-999.0,-999.0,-999,0.00,,,0.00,weatherlink.com 1.10,2013-11-26 07:03:00,
2013-11-26 02:18:00,-999.0,-99.9,30.26,North,-999,-999.0,-999.0,-999,0.00,,,0.00,weatherlink.com 1.10,2013-11-26 07:18:00,
2013-11-26 02:33:00,-999.0,-99.9,30.25,North,-999,-999.0,-999.0,-999,0.00,,,0.00,weatherlink.com 1.10,2013-11-26 07:33:00,
2013-11-26 02:48:00,-999.0,-99.9,30.26,North,-999,-999.0,-999.0,-999,0.00,,,0.00,weatherlink.com 1.10,2013-11-26 07:48:00,
2013-11-26 03:03:00,-999.0,-99.9,30.26,North,-999,-999.0,-999.0,-999,0.00,,,0.00,weatherlink.com 1.10,2013-11-26 08:03:00,
2013-11-26 03:18:00,-999.0,-99.9,30.25,North,-999,-999.0,-999.0,-999,0.00,,,0.00,weatherlink.com 1.10,2013-11-26 08:18:00,
2013-11-26 03:33:00,-999.0,-99.9,30.23,North,-999,-999.0,-999.0,-999,0.00,,,0.00,weatherlink.com 1.10,2013-11-26 08:33:00,
2013-11-26 03:48:00,-999.0,-99.9,30.25,North,-999,-999.0,-999.0,-999,0.00,,,0.00,weatherlink.com 1.10,2013-11-26 08:48:00,
2013-11-26 04:03:00,-999.0,-99.9,30.23,North,-999,-999.0,-999.0,-999,0.00,,,0.00,weatherlink.com 1.10,2013-11-26 09:03:00,
2013-11-26 04:18:00,-999.0,-99.9,30.24,North,-999,-999.0,-999.0,-999,0.00,,,0.00,weatherlink.com 1.10,2013-11-26 09:18:00,
2013-11-26 04:33:00,-999.0,-99.9,30.23,North,-999,-999.0,-999.0,-999,0.00,,,0.00,weatherlink.com 1.10,2013-11-26 09:33:00,
2013-11-26 04:48:00,-999.0,-99.9,30.26,North,-999,-999.0,-999.0,-999,0.00,,,0.00,weatherlink.com 1.10,2013-11-26 09:48:00,
2013-11-26 05:03:00,-999.0,-99.9,30.26,North,-999,-999.0,-999.0,-999,0.00,,,0.00,weatherlink.com 1.10,2013-11-26 10:03:00,
2013-11-26 05:19:00,-999.0,-99.9,30.27,North,-999,-999.0,-999.0,-999,0.00,,,0.00,weatherlink.com 1.10,2013-11-26 10:19:00,
2013-11-26 05:34:00,-999.0,-99.9,30.26,North,-999,-999.0,-999.0,-999,0.00,,,0.00,weatherlink.com 1.10,2013-11-26 10:34:00,
2013-11-26 05:49:00,-999.0,-99.9,30.26,North,-999,-999.0,-999.0,-999,0.00,,,0.00,weatherlink.com 1.10,2013-11-26 10:49:00,
2013-11-26 06:04:00,-999.0,-99.9,30.26,North,-999,-999.0,-999.0,-999,0.00,,,0.00,weatherlink.com 1.10,2013-11-26 11:04:00,
2013-11-26 06:19:00,-999.0,-99.9,30.26,North,-999,-999.0,-999.0,-999,0.00,,,0.00,weatherlink.com 1.10,2013-11-26 11:19:00,
2013-11-26 06:34:00,-999.0,-99.9,30.25,North,-999,-999.0,-999.0,-999,0.00,,,0.00,weatherlink.com 1.10,2013-11-26 11:34:00,
2013-11-26 06:49:00,-999.0,-99.9,30.26,North,-999,-999.0,-999.0,-999,0.00,,,0.00,weatherlink.com 1.10,2013-11-26 11:49:00,
2013-11-26 07:04:00,-999.0,-99.9,30.26,North,-999,-999.0,-999.0,-999,0.00,,,0.00,weatherlink.com 1.10,2013-11-26 12:04:00,
2013-11-26 07:19:00,-999.0,-99.9,30.25,North,-999,-999.0,-999.0,-999,0.00,,,0.00,weatherlink.com 1.10,2013-11-26 12:19:00,
2013-11-26 07:34:00,-999.0,-99.9,30.25,North,-999,-999.0,-999.0,-999,0.00,,,0.00,weatherlink.com 1.10,2013-11-26 12:34:00,
2013-11-26 07:49:00,-999.0,-99.9,30.25,North,-999,-999.0,-999.0,-999,0.00,,,0.00,weatherlink.com 1.10,2013-11-26 12:49:00,
2013-11-26 08:04:00,-999.0,-99.9,30.26,North,-999,-999.0,-999.0,-999,0.00,,,0.00,weatherlink.com 1.10,2013-11-26 13:04:00,
2013-11-26 08:19:00,31.7,21.0,30.25,NE,42,0.0,2.0,65,0.00,,,0.00,weatherlink.com 1.10,2013-11-26 13:19:00,
2013-11-26 08:34:00,32.1,21.0,30.26,NE,41,0.0,0.0,65,0.00,,,0.00,weatherlink.com 1.10,2013-11-26 13:34:00,
2013-11-26 08:49:00,32.4,21.0,30.25,NNE,25,0.0,1.0,64,0.00,,,0.00,weatherlink.com 1.10,2013-11-26 13:49:00,
2013-11-26 09:04:00,32.6,22.0,30.26,WNW,293,0.0,1.0,64,0.00,,,0.00,weatherlink.com 1.10,2013-11-26 14:04:00,
2013-11-26 09:19:00,32.9,21.0,30.26,NNW,335,0.0,1.0,62,0.00,,,0.00,weatherlink.com 1.10,2013-11-26 14:19:00,
2013-11-26 09:34:00,33.5,22.0,30.26,SE,131,1.0,3.0,62,0.00,,,0.00,weatherlink.com 1.10,2013-11-26 14:34:00,
2013-11-26 09:49:00,33.9,22.0,30.26,ESE,110,0.0,3.0,61,0.00,,,0.00,weatherlink.com 1.10,2013-11-26 14:49:00,
2013-11-26 10:05:00,34.4,22.0,30.26,ESE,113,2.0,6.0,60,0.00,,,0.00,weatherlink.com 1.10,2013-11-26 15:05:00,
2013-11-26 10:20:00,34.8,20.0,30.25,SE,135,2.0,4.0,56,0.00,,,0.00,weatherlink.com 1.10,2013-11-26 15:20:00,
2013-11-26 10:35:00,35.4,22.0,30.25,SE,127,3.0,5.0,58,0.00,,,0.00,weatherlink.com 1.10,2013-11-26 15:35:00,
2013-11-26 10:50:00,35.6,22.0,30.25,East,94,3.0,4.0,57,0.00,,,0.00,weatherlink.com 1.10,2013-11-26 15:50:00,
2013-11-26 11:05:00,35.5,21.0,30.25,East,91,1.0,4.0,57,0.00,,,0.00,weatherlink.com 1.10,2013-11-26 16:05:00,
2013-11-26 11:20:00,35.7,21.0,30.23,SE,131,1.0,3.0,56,0.00,,,0.00,weatherlink.com 1.10,2013-11-26 16:20:00,
2013-11-26 11:35:00,35.5,22.0,30.22,ENE,60,2.0,3.0,59,0.00,,,0.00,weatherlink.com 1.10,2013-11-26 16:35:00,
2013-11-26 11:50:00,35.2,23.0,30.22,ESE,111,2.0,3.0,62,0.00,,,0.00,weatherlink.com 1.10,2013-11-26 16:50:00,
2013-11-26 12:05:00,34.9,24.0,30.21,SE,143,2.0,4.0,65,0.00,,,0.00,weatherlink.com 1.10,2013-11-26 17:05:00,
2013-11-26 12:20:00,34.5,25.0,30.20,ENE,78,1.0,3.0,69,0.00,,,0.00,weatherlink.com 1.10,2013-11-26 17:20:00,
2013-11-26 12:35:00,33.9,26.0,30.20,SSE,152,1.0,2.0,72,0.00,,,0.00,weatherlink.com 1.10,2013-11-26 17:35:00,
2013-11-26 12:50:00,33.3,26.0,30.18,East,83,1.0,1.0,75,0.00,,,0.00,weatherlink.com 1.10,2013-11-26 17:50:00,
2013-11-26 13:05:00,33.1,27.0,30.18,NE,46,0.0,2.0,77,0.00,,,0.00,weatherlink.com 1.10,2013-11-26 18:05:00,
2013-11-26 13:20:00,32.9,27.0,30.18,ENE,76,1.0,1.0,79,0.00,,,0.00,weatherlink.com 1.10,2013-11-26 18:20:00,
2013-11-26 13:35:00,32.7,28.0,30.17,ENE,77,2.0,2.0,81,0.00,,,0.00,weatherlink.com 1.10,2013-11-26 18:35:00,
2013-11-26 13:50:00,32.8,28.0,30.16,North,7,1.0,2.0,83,0.00,,,0.00,weatherlink.com 1.10,2013-11-26 18:50:00,
2013-11-26 14:05:00,32.9,29.0,30.15,NNW,340,1.0,2.0,85,0.00,,,0.00,weatherlink.com 1.10,2013-11-26 19:05:00,
2013-11-26 14:20:00,32.8,29.0,30.14,NNE,26,1.0,3.0,86,0.00,,,0.00,weatherlink.com 1.10,2013-11-26 19:20:00,
2013-11-26 14:35:00,32.8,29.0,30.14,NE,50,0.0,3.0,87,0.00,,,0.00,weatherlink.com 1.10,2013-11-26 19:35:00,
2013-11-26 14:50:00,32.8,29.0,30.13,North,1,2.0,4.0,87,0.00,,,0.00,weatherlink.com 1.10,2013-11-26 19:50:00,
2013-11-26 15:05:00,32.9,30.0,30.13,NNW,328,1.0,2.0,88,0.00,,,0.00,weatherlink.com 1.10,2013-11-26 20:05:00,
2013-11-26 15:20:00,33.0,30.0,30.12,East,96,0.0,2.0,88,0.00,,,0.00,weatherlink.com 1.10,2013-11-26 20:20:00,
2013-11-26 15:35:00,33.0,30.0,30.12,East,84,0.0,2.0,88,0.00,,,0.00,weatherlink.com 1.10,2013-11-26 20:35:00,
2013-11-26 15:50:00,33.0,30.0,30.11,ENE,61,0.0,3.0,89,0.00,,,0.00,weatherlink.com 1.10,2013-11-26 20:50:00,
2013-11-26 16:05:00,32.9,30.0,30.11,NNE,28,0.0,3.0,89,0.00,,,0.00,weatherlink.com 1.10,2013-11-26 21:05:00,
2013-11-26 16:20:00,32.9,30.0,30.10,NNW,340,3.0,4.0,89,0.00,,,0.00,weatherlink.com 1.10,2013-11-26 21:20:00,
2013-11-26 16:35:00,33.0,30.0,30.09,NNE,20,1.0,2.0,90,0.00,,,0.00,weatherlink.com 1.10,2013-11-26 21:35:00,
2013-11-26 16:50:00,33.0,30.0,30.09,NNW,330,0.0,3.0,90,0.00,,,0.00,weatherlink.com 1.10,2013-11-26 21:50:00,
2013-11-26 17:05:00,33.1,31.0,30.09,North,355,0.0,2.0,90,0.00,,,0.00,weatherlink.com 1.10,2013-11-26 22:05:00,
2013-11-26 17:21:00,33.3,31.0,30.09,North,10,0.0,3.0,91,0.00,,,0.00,weatherlink.com 1.10,2013-11-26 22:21:00,
2013-11-26 17:51:00,33.6,31.0,30.08,North,6,2.0,3.0,91,0.00,,,0.00,weatherlink.com 1.10,2013-11-26 22:51:00,
2013-11-26 18:06:00,33.6,31.0,30.08,East,86,0.0,2.0,91,0.00,,,0.00,weatherlink.com 1.10,2013-11-26 23:06:00,
2013-11-26 18:21:00,33.6,32.0,30.07,North,352,1.0,2.0,92,0.00,,,0.00,weatherlink.com 1.10,2013-11-26 23:21:00,
2013-11-26 18:51:00,33.8,32.0,30.05,WNW,290,0.0,2.0,93,0.00,,,0.00,weatherlink.com 1.10,2013-11-26 23:51:00,
2013-11-26 19:06:00,33.8,32.0,30.04,West,266,1.0,2.0,93,0.00,,,0.00,weatherlink.com 1.10,2013-11-27 00:06:00,
2013-11-26 19:21:00,34.0,32.0,30.03,WSW,255,1.0,2.0,93,0.00,,,0.00,weatherlink.com 1.10,2013-11-27 00:21:00,
2013-11-26 19:36:00,34.1,33.0,30.02,WNW,297,2.0,3.0,94,0.00,,,0.00,weatherlink.com 1.10,2013-11-27 00:36:00,
2013-11-26 19:51:00,34.4,33.0,30.01,West,276,2.0,3.0,94,0.00,,,0.00,weatherlink.com 1.10,2013-11-27 00:51:00,
2013-11-26 20:06:00,34.8,33.0,30.00,WNW,290,1.0,4.0,94,0.00,,,0.00,weatherlink.com 1.10,2013-11-27 01:06:00,
2013-11-26 20:21:00,34.9,33.0,29.98,NW,311,2.0,4.0,94,0.00,,,0.00,weatherlink.com 1.10,2013-11-27 01:21:00,
2013-11-26 20:36:00,35.0,34.0,29.96,North,350,2.0,7.0,94,0.00,,,0.00,weatherlink.com 1.10,2013-11-27 01:36:00,
2013-11-26 20:51:00,35.2,34.0,29.94,NW,321,3.0,7.0,94,0.00,,,0.00,weatherlink.com 1.10,2013-11-27 01:51:00,
2013-11-26 21:06:00,35.3,34.0,29.93,NNW,342,0.0,7.0,94,0.00,,,0.00,weatherlink.com 1.10,2013-11-27 02:06:00,
2013-11-26 21:21:00,35.5,34.0,29.91,NW,312,3.0,11.0,94,0.00,,,0.00,weatherlink.com 1.10,2013-11-27 02:21:00,
2013-11-26 21:36:00,35.8,34.0,29.90,NW,325,3.0,8.0,94,0.00,,,0.00,weatherlink.com 1.10,2013-11-27 02:36:00,
2013-11-26 21:51:00,36.1,35.0,29.87,NNE,13,5.0,7.0,94,0.00,,,0.00,weatherlink.com 1.10,2013-11-27 02:51:00,
2013-11-26 22:06:00,36.8,36.0,29.86,North,9,4.0,9.0,95,0.00,,,0.00,weatherlink.com 1.10,2013-11-27 03:06:00,
2013-11-26 22:21:00,37.5,36.0,29.84,North,352,5.0,11.0,95,0.00,,,0.00,weatherlink.com 1.10,2013-11-27 03:21:00,
2013-11-26 22:37:00,38.1,37.0,29.81,NNE,13,7.0,11.0,95,0.00,,,0.00,weatherlink.com 1.10,2013-11-27 03:37:00,
2013-11-26 22:52:00,38.9,38.0,29.79,North,4,5.0,9.0,95,0.00,,,0.00,weatherlink.com 1.10,2013-11-27 03:52:00,
2013-11-26 23:07:00,39.6,38.0,29.77,NW,309,2.0,5.0,95,0.00,,,0.00,weatherlink.com 1.10,2013-11-27 04:07:00,
2013-11-26 23:22:00,40.1,39.0,29.75,NW,317,0.0,6.0,95,0.00,,,0.00,weatherlink.com 1.10,2013-11-27 04:22:00,
2013-11-26 23:37:00,40.9,40.0,29.72,NNW,330,2.0,9.0,96,0.00,,,0.00,weatherlink.com 1.10,2013-11-27 04:37:00,
2013-11-26 23:52:00,41.4,40.0,29.69,NNW,345,4.0,8.0,96,0.00,,,0.00,weatherlink.com 1.10,2013-11-27 04:52:00,